EHI
0 0 0 0 0 0 0 0 0 0 0 0 0 0 1 2 2 1 0 0 0 0 0 0 0 0 0 0 0 0 0 0 0 0 0 0 0 0 0 0 0 0 0
0 0 0 0 0 0 0 0 0 0 0 0 0 0 0 1 1 0 0 0 0 0 0 0 0 0 0 0 0 0 0 0 0 0 0 0 0 0 0 0 0 0 0
0 0 0 0 0 0 0 0 0 0 0 0 0 0 0 0 0 0 0 0 0 0 0 0 0 0 0 0 0 0 0 0 0 0 0 0 0 0 0 0 0 0 0
0 0 0 0 0 0 0 0 0 0 0 0 0 0 0 0 0 0 0 0 0 0 0 0 0 0 0 0 0 0 0 0 0 0 0 0 0 0 0 0 0 0 0
0 0 0 0 0 0 0 0 0 0 0 0 0 0 0 0 0 0 0 0 0 0 0 0 0 0 0 0 0 0 0 0 0 0 0 0 0 0 0 0 0 0 0
0 0 0 0 0 0 0 0 0 0 0 0 0 0 0 0 0 0 0 0 0 0 0 0 0 0 0 0 0 0 0 0 0 0 0 0 0 0 0 0 0 0 0
0 0 0 0 0 0 0 0 0 0 0 0 0 0 0 0 0 0 0 0 0 0 0 0 0 0 0 0 0 0 0 0 0 0 0 0 0 0 0 0 0 0 0
0 0 0 0 0 0 0 0 0 0 0 0 0 0 0 0 0 0 0 0 0 0 0 0 0 0 0 0 0 0 0 0 0 0 0 0 0 0 0 0 0 0 0
0 0 0 0 0 0 0 0 0 0 0 0 0 0 0 0 0 0 0 0 0 0 0 0 0 0 0 0 0 0 0 0 0 0 0 0 0 0 0 0 0 0 0
0 0 0 0 0 0 0 0 0 0 0 0 0 0 0 0 0 0 0 0 0 0 0 0 0 0 0 0 0 0 0 0 0 0 0 0 0 0 0 0 0 0 0
0 0 0 0 0 0 0 0 0 0 0 0 0 0 0 0 0 0 0 0 0 0 0 0 0 0 0 0 0 0 0 0 0 0 0 0 0 0 0 0 0 0 0
0 0 0 0 0 0 0 0 0 0 0 0 0 0 0 0 0 0 0 0 0 0 0 0 0 0 0 0 0 0 0 0 0 0 0 0 0 0 0 0 0 0 0
0 0 0 0 0 0 0 0 0 0 0 0 0 0 0 0 0 0 0 0 0 0 0 0 0 0 0 0 0 0 0 0 0 0 0 0 0 0 0 0 0 0 0
0 0 0 0 0 0 0 0 0 0 0 0 0 0 0 0 0 0 0 0 0 0 0 0 0 0 0 0 0 0 0 0 0 0 0 0 0 0 0 0 0 0 0
0 0 0 0 0 0 0 0 0 0 0 0 0 0 0 0 0 0 0 0 0 0 0 0 0 0 0 0 0 0 0 0 0 0 0 0 0 0 0 0 0 0 0
0 0 0 0 0 0 0 0 0 0 0 0 0 0 0 0 0 0 0 0 0 0 0 0 0 0 0 0 0 0 0 0 0 0 0 0 0 0 0 0 0 0 0
0 0 0 0 0 0 0 0 0 0 0 0 0 0 0 0 0 0 0 0 0 0 0 0 0 0 0 0 0 0 0 0 0 0 0 0 0 0 0 0 0 0 0
0 0 0 0 0 0 0 0 0 0 0 0 0 0 0 0 0 0 0 0 0 0 0 0 0 0 0 0 0 0 0 0 0 0 0 0 0 0 0 0 0 0 0
0 0 0 0 0 0 0 0 0 0 0 0 0 0 0 0 0 0 0 0 0 0 0 0 0 0 0 0 0 0 0 0 0 0 0 0 0 0 0 0 0 0 0
0 0 0 0 0 0 0 0 0 0 0 0 0 0 0 0 0 0 0 0 0 0 0 0 0 0 0 0 0 0 0 0 0 0 0 0 0 0 0 0 0 0 0
0 0 0 0 0 0 0 0 0 0 0 0 0 0 0 0 0 0 0 0 0 0 0 0 0 0 0 0 0 0 0 0 0 0 0 0 0 0 0 0 0 0 0
0 0 0 0 0 0 0 0 0 0 0 0 0 0 0 0 0 0 0 0 0 0 0 0 0 0 0 0 0 0 0 0 0 0 0 0 0 0 0 0 0 0 0
0 0 0 0 0 0 0 0 0 0 0 0 0 0 0 0 0 0 0 0 0 0 0 0 0 0 0 0 0 0 0 0 0 0 0 0 0 0 0 0 0 0 0
0 0 0 0 0 0 0 0 0 0 0 0 0 0 0 0 0 0 0 0 0 0 0 0 0 0 0 0 0 0 0 0 0 0 0 0 0 0 0 0 0 0 0
0 0 0 0 0 0 0 0 0 0 0 0 0 0 0 0 0 0 0 0 0 0 0 0 0 0 0 0 0 0 0 0 0 0 0 0 0 0 0 0 0 0 0
0 0 0 0 0 0 0 0 0 0 0 0 0 0 0 0 0 0 0 0 0 0 0 0 0 0 0 0 0 0 0 0 0 0 0 0 0 0 0 0 0 0 0
Wind_Speed
3 3 3 3 3 3 3 3 3 4 4 4 4 4 4 4 4 3 3 8 9 9 9 8 8 8 8 7 6 6 6 6 6 6 5 4 4 4 4 4 3 2 1
3 2 3 3 3 3 3 3 4 3 3 3 4 4 4 3 3 3 3 4 7 9 9 9 8 8 8 8 6 6 6 6 6 6 7 6 5 3 3 3 3 3 2
3 3 2 3 3 3 3 3 3 3 3 3 3 4 3 3 3 3 3 3 3 7 9 9 9 8 8 8 7 6 6 6 6 6 6 6 6 5 4 3 3 3 3
3 3 2 2 2 2 2 2 3 3 3 3 3 3 2 2 3 3 3 3 3 3 5 8 8 8 7 7 7 6 6 6 6 5 5 6 6 6 5 5 4 4 4
3 3 2 2 2 2 2 2 2 2 3 3 3 3 2 2 2 2 2 3 4 4 4 5 7 7 7 7 7 6 6 6 6 6 6 6 6 6 6 6 5 5 4
3 2 2 2 2 2 2 2 3 2 2 2 2 2 2 1 1 2 2 3 3 4 4 5 4 4 6 6 6 6 6 6 6 6 7 7 7 7 7 7 6 6 5
2 2 2 2 1 2 2 2 2 2 2 2 2 2 1 0 1 2 2 2 3 4 4 4 4 3 3 5 6 7 7 7 7 7 7 8 8 8 8 8 8 7 7
2 1 1 1 1 1 2 2 2 1 2 2 2 2 1 1 0 1 1 2 3 3 4 4 4 4 4 3 4 7 8 8 8 8 8 8 8 9 9 9 9 9 8
2 1 1 1 1 1 1 1 1 1 1 1 2 2 2 2 2 1 1 1 3 3 3 4 4 4 4 4 3 5 8 8 9 9 9 9 9 10 10 10 10 10 10
1 1 0 0 0 0 0 1 1 1 1 1 1 2 3 2 3 2 2 2 3 4 4 4 4 4 4 3 4 7 8 9 10 10 11 10 11 11 11 11 11 11 10
2 1 1 1 1 1 1 1 1 2 2 2 2 2 2 2 3 3 4 4 3 3 3 4 3 3 4 4 4 6 8 9 10 11 11 11 11 12 12 12 12 12 12
2 2 2 1 1 1 2 2 2 2 2 3 2 2 3 3 3 3 5 5 5 4 4 3 4 3 3 4 5 8 9 10 11 12 12 12 12 12 13 13 13 13 13
2 2 2 2 2 2 2 2 3 3 3 4 3 3 3 3 3 4 5 5 6 5 5 3 3 3 3 4 4 8 9 10 11 12 13 12 11 11 12 12 13 13 13
3 3 3 3 3 3 3 3 3 3 3 4 4 4 3 3 3 4 4 5 5 5 5 5 4 4 3 4 6 9 7 10 11 11 12 12 11 11 12 12 12 13 13
2 3 3 3 3 3 4 3 3 4 4 4 5 5 4 3 4 4 4 5 5 6 6 5 4 4 4 5 7 7 7 9 11 11 11 11 11 11 11 11 11 12 12
3 4 4 4 4 4 4 4 4 4 5 5 4 5 5 4 4 4 5 5 6 6 6 5 6 6 6 6 8 8 8 11 12 11 10 10 10 10 10 11 11 11 11
4 4 4 4 5 5 4 4 5 5 5 5 5 5 6 5 5 4 5 5 5 5 7 7 6 6 8 8 7 7 7 8 7 9 9 10 10 10 10 11 11 11 11
4 4 5 5 5 5 5 5 5 6 6 6 6 6 6 5 6 5 5 5 5 6 6 8 7 6 8 8 8 8 7 7 7 9 10 10 10 10 10 10 11 11 11
4 4 4 5 5 5 5 5 6 6 7 7 7 7 7 6 7 5 6 5 5 5 5 6 7 6 6 6 7 7 8 7 7 8 9 9 9 10 10 11 11 11 11
4 4 4 5 5 5 5 6 6 6 7 7 7 7 7 7 7 7 6 6 5 5 6 6 6 6 6 6 6 6 6 6 6 6 7 8 9 10 11 11 11 11 11
4 4 5 5 5 5 5 6 6 7 7 7 7 7 7 8 9 8 6 6 6 5 5 6 6 6 6 5 5 5 6 7 7 5 6 6 7 6 6 8 9 10 11
4 5 5 5 6 5 7 9 8 7 7 7 7 7 7 7 8 10 10 10 9 8 7 7 7 7 8 7 6 6 6 7 7 4 6 7 6 7 6 6 8 10 11
4 5 5 6 6 7 9 10 10 7 6 6 7 7 6 6 8 7 8 10 10 11 12 9 9 9 9 8 8 8 8 8 8 7 7 8 7 7 6 6 10 11 11
4 5 5 6 6 7 9 10 9 7 6 7 7 7 7 8 7 8 8 8 8 8 9 8 8 9 8 8 8 8 9 9 9 7 7 8 7 7 7 6 9 10 11
4 5 5 6 6 7 9 9 9 5 6 7 7 8 8 8 10 11 9 8 8 7 8 10 11 11 12 12 10 7 7 7 7 6 5 6 6 7 7 6 6 8 10
4 4 5 5 6 6 9 10 9 5 5 6 6 7 9 10 10 11 8 7 8 7 7 7 8 9 9 9 10 8 7 7 6 6 4 5 6 5 6 5 4 5 7
Wind_Direction
70 65 57 47 40 30 27 23 21 20 18 22 28 25 24 26 30 30 42 38 31 29 30 31 37 39 37 38 39 36 32 34 32 26 20 16 13 18 19 15 11 8 1
68 65 61 49 40 28 23 17 18 14 13 13 18 17 15 20 24 27 29 43 40 31 26 25 29 31 29 28 31 29 26 25 22 20 14 6 358 3 5 4 355 342 327
73 68 64 55 40 27 24 21 20 14 15 12 13 12 10 16 21 28 27 25 37 39 31 23 22 26 26 22 22 20 18 15 11 7 5 1 359 351 349 349 342 337 323
71 72 64 55 38 30 24 24 17 12 11 1 1 3 2 8 17 24 32 29 22 24 33 25 16 17 19 17 13 11 8 3 358 354 348 344 344 342 341 337 328 323 314
70 77 67 55 43 37 32 20 19 10 7 0 353 352 352 359 11 16 29 28 19 15 16 21 16 13 13 12 4 357 355 351 345 343 337 333 329 324 322 323 317 319 318
67 76 76 60 48 43 36 24 16 17 10 1 352 351 348 358 15 25 21 22 17 10 6 3 0 8 13 9 357 346 342 339 333 331 328 323 318 310 306 302 306 298 300
79 76 76 75 51 49 40 26 15 12 20 9 349 347 350 24 40 21 12 3 7 2 352 355 349 349 348 358 356 349 342 333 326 318 318 314 308 305 297 291 288 292 286
80 70 74 69 49 42 45 32 19 2 4 6 335 309 295 225 173 336 340 340 349 346 344 347 347 347 338 328 352 351 342 332 322 317 309 306 305 300 299 294 283 280 283
96 77 73 94 77 46 37 17 4 342 327 343 348 316 297 290 319 251 293 316 333 331 332 336 340 340 333 334 334 346 337 330 319 312 308 303 300 298 293 293 292 282 279
142 135 175 167 148 48 311 297 313 310 295 299 310 321 311 309 285 290 257 280 308 312 314 320 328 330 329 328 334 335 331 327 320 311 304 301 297 293 292 290 290 288 286
173 167 198 205 212 244 273 275 276 283 278 279 289 295 283 272 268 270 284 291 288 290 301 306 307 313 320 320 320 329 327 323 317 313 307 298 297 294 289 287 287 286 284
186 185 208 220 232 242 253 261 261 263 264 266 267 268 272 270 276 276 280 290 291 292 292 292 295 300 305 307 315 322 317 315 313 310 307 302 298 299 295 288 286 283 281
202 201 217 231 246 257 257 254 254 256 256 258 257 261 263 265 276 274 274 285 287 293 287 278 285 290 297 299 306 315 309 312 313 310 307 306 307 303 302 298 290 285 281
213 214 223 235 244 249 255 248 247 252 255 256 258 259 260 262 266 267 269 281 287 283 280 284 288 285 297 302 307 307 304 309 309 307 305 305 306 307 302 299 296 291 285
216 221 230 237 240 244 249 254 247 249 253 255 258 259 258 261 263 265 263 263 269 280 285 288 294 293 303 303 303 295 295 303 304 300 298 298 298 300 301 298 298 297 295
216 222 232 239 239 240 244 250 254 250 251 254 258 260 262 263 263 262 257 258 258 262 274 286 291 295 298 297 300 296 293 301 298 292 293 295 295 297 297 297 297 298 298
223 225 231 239 242 240 241 246 252 255 250 251 253 255 259 262 264 263 258 255 255 255 265 279 284 288 290 292 295 295 296 294 293 294 292 292 294 295 294 294 294 295 295
233 234 236 239 244 244 244 246 250 251 250 250 252 253 256 258 260 260 258 258 259 259 260 273 282 285 289 291 292 292 293 292 292 295 293 289 289 291 291 288 289 290 291
239 241 241 243 246 248 249 250 250 250 250 252 251 252 253 254 257 259 260 261 262 264 263 267 277 282 285 286 291 290 290 289 289 292 290 287 288 289 289 286 285 286 286
242 246 248 250 250 251 252 253 251 249 251 255 256 254 252 253 256 260 262 262 264 267 266 266 271 276 280 288 286 291 294 294 293 294 290 290 292 292 287 284 282 283 283
247 250 251 254 253 252 249 252 252 253 257 259 259 260 259 259 263 264 264 264 265 265 268 267 270 274 277 284 284 289 289 294 291 290 293 292 291 287 285 282 280 281 281
250 251 251 253 254 253 255 259 261 259 260 259 262 263 264 263 265 267 272 273 270 265 265 268 270 272 277 281 284 281 283 287 286 288 294 292 289 285 285 281 285 286 282
256 255 257 256 257 259 261 264 265 263 259 258 259 261 261 263 269 266 271 272 270 269 267 268 270 274 278 279 279 280 279 281 281 289 288 284 284 282 284 284 287 282 280
255 258 259 260 264 265 267 268 268 262 262 260 258 259 262 264 263 268 269 268 267 266 268 268 269 273 275 277 276 278 279 278 278 273 269 276 280 282 287 286 287 280 280
258 257 259 260 265 271 268 267 272 261 260 261 259 258 259 262 265 268 269 269 270 272 273 273 274 277 276 277 277 275 272 270 273 274 268 266 277 286 285 282 283 283 283
259 263 264 264 265 269 269 269 271 259 260 261 259 258 259 261 266 268 265 268 270 276 279 279 276 276 275 273 273 267 268 268 273 273 262 268 277 286 283 280 288 292 288